Flag for U.S.A. Weather past 2 weeks in Orange, California, U.S.A.

Now
56 °F

Passing clouds.


Feels Like: 56 °F
Forecast: 54 / 72 °F
Wind: No wind

Location: John Wayne Airport-Orange County Airport

Current Time: Jan 27, 2015 at 4:34:32 AM

Latest Report: Jan 27, 2015 at 3:53 AM


Visibility: 10 mi

Pressure: 30.12 "Hg

Humidity: 81%

Dew point: 50 °F

Location of OrangeLocation

Historic Weather in Orange — Graph

°F

Orange temperature yesterday

Maximum temperature yesterday: 80 °F (at 11:53 AM)
Minimum temperature yesterday: 59 °F (at 10:53 PM)
Average temperature yesterday: 66 °F

Past Weeks' High & Low Weather Summary

 TemperatureHumidityPressure
High84 °F (Jan 25, 12:53 PM)90% (Jan 20, 1:53 AM)30.25 "Hg (Jan 20, 1:53 AM)
Low49 °F (Jan 15, 5:53 AM)5% (Jan 23, 1:53 PM)29.93 "Hg (Jan 25, 2:53 PM)
Average63 °F52%30.10 "Hg
* Reported Jan 12 2:56 AM — Jan 27 2:53 AM, Orange, Weather by CustomWeather, © 2014

Note: Actual official high and low records may vary slightly from our data, if they occured in-between our weather recording intervals... More about our weather records

Advertising

Orange weather history for previous 24 hours

 ConditionsComfort  
Time TempWeatherWind HumidityBarometerVisibility
2:53 AM
Jan 27
57 °FOvercast.No wind81%30.12 "Hg10 mi
1:53 AM57 °FClear.No wind83%30.11 "Hg10 mi
12:53 AM59 °FPartly cloudy.No wind78%30.10 "Hg10 mi
11:53 PM
Jan 26
60 °FOvercast.No wind72%30.11 "Hg10 mi
10:53 PM59 °FPartly cloudy.No wind75%30.10 "Hg10 mi
9:53 PM61 °FPassing clouds.3 mph70%30.09 "Hg10 mi
8:53 PM60 °FPassing clouds.7 mph75%30.08 "Hg10 mi
7:53 PM60 °FMostly cloudy.6 mph78%30.08 "Hg10 mi
6:53 PM61 °FLight rain. Mostly cloudy.7 mph72%30.09 "Hg7 mi
5:53 PM62 °FLight rain. Mostly cloudy.6 mph67%30.06 "Hg10 mi
4:53 PM62 °FLight rain. Overcast.9 mph70%30.05 "Hg8 mi
3:53 PM65 °FLight rain. Overcast.8 mph63%30.04 "Hg9 mi
2:53 PM70 °FLight rain. Mostly cloudy.10 mph38%30.03 "Hg10 mi
1:53 PM72 °FBroken clouds.14 mph38%29.98 "Hg10 mi
12:53 PM78 °FPartly sunny.5 mph20%29.97 "Hg10 mi
11:53 AM80 °FPartly sunny.14 mph19%29.98 "Hg10 mi
10:53 AM77 °FPartly sunny.6 mph24%30.00 "Hg10 mi
9:53 AM74 °FPartly sunny.5 mph31%30.00 "Hg10 mi
8:53 AM72 °FPartly sunny.No wind34%29.98 "Hg10 mi
7:53 AM69 °FPartly sunny.12 mph38%29.98 "Hg10 mi
6:53 AM65 °FPartly sunny.5 mph39%29.96 "Hg10 mi
5:53 AM64 °FOvercast.No wind41%29.96 "Hg10 mi
4:53 AM64 °FPassing clouds.3 mph38%29.96 "Hg10 mi
Weather by CustomWeather, © 2014

See weather overviewHow to use our weather pages